Location: Terschelling
(53.4100°N, 5.3500°E)
Time: 16:10:26
(UTC+01:00)

Oscar 11 - Visible Passes

Search period start: 04 March 2024 00:00
Search period end: 14 March 2024 00:00
Orbit: 603 x 617 km, 97.7° (Epoch: 03 March)

Date Brightness Start Highest point End Pass type
(mag) Time Alt. Az. Time Alt. Az. Time Alt. Az.
04 Mar 9.8 03:21:21 10° NE 03:23:32 14° E 03:24:21 13° E visible
04 Mar 6.9 04:55:47 10° NNE 05:00:05 86° WNW 05:01:20 46° SSW visible
04 Mar 8.8 06:33:02 10° NNW 06:35:24 15° NW 06:37:46 10° W visible
05 Mar 9.4 03:34:55 10° NE 03:37:53 18° E 03:38:52 17° ESE visible
05 Mar 7.0 05:10:01 10° N 05:14:14 64° WNW 05:15:50 36° SW visible
06 Mar 9.0 03:48:44 10° NE 03:52:13 24° E 03:53:22 21° ESE visible
06 Mar 7.3 05:24:16 10° N 05:28:23 48° WNW 05:30:20 27° SW visible
07 Mar 8.6 04:02:39 10° NNE 04:06:30 31° E 04:07:52 26° SE visible
07 Mar 7.6 05:38:33 10° N 05:42:29 36° WNW 05:44:50 20° WSW visible
08 Mar 8.1 04:16:41 10° NNE 04:20:45 42° E 04:22:22 29° SSE visible
08 Mar 8.0 05:52:54 10° N 05:56:33 28° WNW 05:59:19 15° WSW visible
09 Mar 7.6 04:30:45 10° NNE 04:34:58 57° E 04:36:52 30° SSE visible
09 Mar 8.3 06:07:18 10° N 06:10:36 22° WNW 06:13:50 10° WSW visible
10 Mar 10.0 03:11:17 10° ENE 03:12:29 11° E 03:13:40 10° E visible
10 Mar 7.1 04:44:52 10° NNE 04:49:10 77° ESE 04:51:21 28° S visible
10 Mar 8.6 06:21:46 10° NNW 06:24:37 18° WNW 06:27:26 10° W visible
11 Mar 9.7 03:24:23 10° NE 03:26:50 15° E 03:28:52 11° ESE visible
11 Mar 6.9 04:59:02 10° NNE 05:03:19 80° WNW 05:05:50 24° SSW visible
12 Mar 9.4 03:38:01 10° NE 03:41:10 20° E 03:43:21 14° SE visible
12 Mar 7.1 05:13:14 10° N 05:17:28 59° WNW 05:20:19 20° SW visible
13 Mar 9.0 03:51:50 10° NE 03:55:26 26° E 03:57:50 16° SE visible
13 Mar 7.4 05:27:28 10° N 05:31:34 44° WNW 05:34:47 15° SW visible
